MAU53 EGKK-FIMP

Flight info

Callsign MAU53
Flight time N/A
Altitude 35000
Route SFD1X SFD Y47 DRAKE L151 SITET UN859 SOPIL DCT BALAN DCT EVPOK DCT NARAK/N0485F370 DCT GAI DCT LOMRA DCT ROCAN DCT PUMAL N859 MOGIL UB31 ZEM/N0487F360 UM989 BSA/N0484F370 UR985 RIMEL UA605 DJA UB730 RAKOM/N0488F390 UB730 DIR UM731 FL UT325 POGBA/N0486F400 UT325 SIPKI/N0489F390 UW325 SEZIM/N0484F410 UW325 NN UA401 DV UG661 ANVOR DCT TIBAG TIBAG2E
Aircraft A359/H-SDE2E3GHIJ3J4J5LM1ORWXY/LB1D1

Departure

Time N/A
Airport London Gatwick Airport (EGKK)

Arrival

Time 2026-05-04 11:19
Airport Sir Seewoosagur Ramgoolam International Airport (FIMP)
Time Latitude Longitude Altitude Speed Heading
2026-05-04 10:52 -18.70917 55.77713 42136 ft 505 kts 140°
2026-05-04 10:52 -18.73482 55.80261 41482 ft 505 kts 140°
2026-05-04 10:52 -18.76053 55.82816 40826 ft 506 kts 140°
2026-05-04 10:54 -18.94174 56.00869 35778 ft 517 kts 140°
2026-05-04 10:54 -18.96795 56.03486 35025 ft 518 kts 140°
2026-05-04 10:56 -19.15205 56.21897 29221 ft 521 kts 139°
2026-05-04 10:56 -19.17804 56.24504 28536 ft 516 kts 139°
2026-05-04 10:56 -19.20401 56.27110 27888 ft 509 kts 139°
2026-05-04 10:57 -19.22962 56.29679 27259 ft 502 kts 139°
2026-05-04 10:57 -19.25488 56.32214 26578 ft 495 kts 139°
2026-05-04 10:57 -19.27939 56.34675 26065 ft 488 kts 139°
2026-05-04 10:57 -19.30400 56.37147 25815 ft 488 kts 139°
2026-05-04 10:58 -19.32862 56.39619 25575 ft 488 kts 139°
2026-05-04 10:58 -19.35333 56.42102 25346 ft 486 kts 139°
2026-05-04 10:58 -19.37787 56.44570 25115 ft 485 kts 139°
2026-05-04 10:58 -19.40226 56.47024 24884 ft 483 kts 139°
2026-05-04 10:59 -19.42655 56.49469 24665 ft 481 kts 139°
2026-05-04 10:59 -19.45078 56.51909 24442 ft 479 kts 139°
2026-05-04 10:59 -19.47465 56.54313 24227 ft 478 kts 138°
2026-05-04 10:59 -19.49878 56.56745 24005 ft 476 kts 138°
2026-05-04 11:00 -19.52275 56.59161 23784 ft 475 kts 138°
2026-05-04 11:01 -19.68177 56.75226 19485 ft 432 kts 139°
2026-05-04 11:02 -19.70347 56.77420 18850 ft 428 kts 139°
2026-05-04 11:02 -19.72490 56.79589 18202 ft 423 kts 139°
2026-05-04 11:05 -19.99435 57.06932 11074 ft 311 kts 138°
2026-05-04 11:06 -20.00966 57.08490 10949 ft 297 kts 138°
2026-05-04 11:06 -20.02430 57.09980 10826 ft 285 kts 138°
2026-05-04 11:06 -20.03832 57.11407 10702 ft 273 kts 138°
2026-05-04 11:06 -20.05184 57.12783 10529 ft 266 kts 138°
2026-05-04 11:08 -20.14788 57.22568 8363 ft 279 kts 137°
2026-05-04 11:10 -20.23639 57.33379 6011 ft 276 kts 127°
2026-05-04 11:12 -20.30670 57.43903 5103 ft 218 kts 128°
2026-05-04 11:12 -20.31543 57.45185 5009 ft 210 kts 128°
2026-05-04 11:12 -20.32387 57.46441 4811 ft 207 kts 126°
2026-05-04 11:12 -20.33104 57.47743 4482 ft 205 kts 121°
2026-05-04 11:13 -20.33555 57.48633 4242 ft 203 kts 119°
2026-05-04 11:13 -20.34396 57.50383 3965 ft 194 kts 119°
2026-05-04 11:13 -20.35002 57.51651 3828 ft 190 kts 118°
2026-05-04 11:13 -20.35399 57.52483 3666 ft 190 kts 118°
2026-05-04 11:14 -20.36007 57.53751 3390 ft 192 kts 118°
2026-05-04 11:14 -20.36609 57.54998 3088 ft 189 kts 118°
2026-05-04 11:14 -20.37204 57.56242 2790 ft 188 kts 118°
2026-05-04 11:16 -20.40781 57.63694 1052 ft 134 kts 116°
2026-05-04 11:16 -20.41194 57.64563 863 ft 129 kts 116°
2026-05-04 11:16 -20.41580 57.65429 668 ft 128 kts 116°
2026-05-04 11:17 -20.42001 57.66263 456 ft 128 kts 117°
2026-05-04 11:17 -20.42409 57.67090 252 ft 125 kts 117°
2026-05-04 11:19 -20.43635 57.69207 163 ft 19 kts 301°
2026-05-04 11:19 -20.43563 57.69063 173 ft 25 kts 296°
2026-05-04 11:19 -20.43475 57.68876 179 ft 31 kts 297°
2026-05-04 11:19 -20.43379 57.68681 182 ft 29 kts 299°
2026-05-04 11:20 -20.43282 57.68486 186 ft 30 kts 297°
2026-05-04 11:20 -20.43191 57.68301 205 ft 31 kts 297°
2026-05-04 11:20 -20.43131 57.68130 200 ft 11 kts 246°
2026-05-04 11:20 -20.43192 57.68071 199 ft 13 kts 237°
2026-05-04 11:22 -20.43261 57.67955 203 ft 0 kts 237°